Location: ??????
(41.3164°N, 22.6615°E)
Time: 00:51:28
(UTC+00:00)

SEEDS - Visible Passes

Search period start: 28 June 2022 00:00
Search period end: 08 July 2022 00:00
Orbit: 580 x 599 km, 97.6° (Epoch: 27 June)

Date Brightness Start Highest point End Pass type
(mag) Time Alt. Az. Time Alt. Az. Time Alt. Az.
29 Jun ? 01:33:22 10° ENE 01:34:59 12° E 01:36:36 10° ESE visible
30 Jun ? 01:40:32 10° ENE 01:42:53 15° E 01:45:15 10° SE visible
01 Jul ? 01:47:56 10° NE 01:50:48 18° E 01:53:38 10° SE visible
02 Jul ? 01:55:26 10° NE 01:58:40 22° E 02:01:53 10° SE visible
03 Jul ? 02:03:01 10° NE 02:06:33 27° E 02:10:02 10° SSE visible
04 Jul ? 02:10:40 10° NNE 02:14:24 33° E 02:18:07 10° SSE visible
05 Jul ? 02:18:20 10° NNE 02:22:15 40° E 02:26:08 10° S visible
06 Jul ? 02:26:04 10° NNE 02:30:05 50° E 02:34:05 10° S visible
